When you browse on this site, cookies collect data to enhance your experience and personalize the content and advertising you see.
Visit our Privacy Policy to learn more. By continuing to use the site, you agree to this use of cookies and data.
  • în România
  • Lista ţărilor
  • Pe 7 zile
  • Temperatura apei
  • Hartă satelitară
  • Meteo pe hartă
  • Widget-uri
  • user-avatar
    Intrare

    Meteo pe oră la Penonomé

    Astăzi, 20 Mai, Luni

    Timp Temperatura Precipitaţii Vânt Presiune Umiditate
    00:00 +27°C° 0.2 mm 1 m/s 749 mmHg 88%
    01:00 +27°C° 0.2 mm 1 m/s 749 mmHg 88%
    02:00 +27°C° 0 mm 1 m/s 749 mmHg 88%
    03:00 +27°C° 0 mm 1 m/s 748 mmHg 88%
    04:00 +26°C° 0 mm 1 m/s 748 mmHg 88%
    05:00 +27°C° 0 mm 1 m/s 748 mmHg 87%
    06:00 +27°C° 0 mm 1 m/s 749 mmHg 86%
    07:00 +27°C° 0 mm 1 m/s 749 mmHg 85%
    08:00 +28°C° 0.1 mm 1 m/s 749 mmHg 81%
    09:00 +29°C° 0.1 mm 1 m/s 750 mmHg 76%
    10:00 +30°C° 0.1 mm 1 m/s 750 mmHg 71%
    11:00 +30°C° 0.7 mm 1 m/s 750 mmHg 71%
    12:00 +31°C° 0.7 mm 1 m/s 750 mmHg 71%
    13:00 +31°C° 0.7 mm 2 m/s 749 mmHg 71%
    14:00 +31°C° 1.5 mm 2 m/s 749 mmHg 72%
    15:00 +30°C° 1.5 mm 2 m/s 748 mmHg 73%
    16:00 +30°C° 1.5 mm 2 m/s 748 mmHg 75%
    17:00 +29°C° 0.6 mm 2 m/s 748 mmHg 79%
    18:00 +29°C° 0.6 mm 1 m/s 748 mmHg 82%
    19:00 +28°C° 0.6 mm 1 m/s 748 mmHg 86%
    20:00 +28°C° 0.1 mm 1 m/s 749 mmHg 87%
    21:00 +27°C° 0.1 mm 1 m/s 749 mmHg 87%
    22:00 +27°C° 0.1 mm 1 m/s 750 mmHg 88%
    23:00 +27°C° 0.1 mm 1 m/s 749 mmHg 88%

    Mâine, 21 Mai, Marţi

    Timp Temperatura Precipitaţii Vânt Presiune Umiditate
    00:00 +27°C° 0.1 mm 1 m/s 749 mmHg 89%
    01:00 +27°C° 0.1 mm 1 m/s 749 mmHg 89%
    02:00 +27°C° 0 mm 1 m/s 749 mmHg 89%
    03:00 +26°C° 0 mm 1 m/s 748 mmHg 89%
    04:00 +26°C° 0 mm 1 m/s 748 mmHg 89%
    05:00 +26°C° 0 mm 1 m/s 748 mmHg 88%
    06:00 +27°C° 0 mm 1 m/s 748 mmHg 87%
    07:00 +27°C° 0 mm 1 m/s 748 mmHg 86%
    08:00 +28°C° 0 mm 1 m/s 749 mmHg 80%
    09:00 +30°C° 0 mm 2 m/s 749 mmHg 74%
    10:00 +31°C° 0 mm 2 m/s 750 mmHg 68%
    11:00 +31°C° 0.8 mm 2 m/s 749 mmHg 68%
    12:00 +33°C° 0.8 mm 3 m/s 749 mmHg 67%
    13:00 +33°C° 0.8 mm 3 m/s 749 mmHg 67%
    14:00 +31°C° 0.3 mm 3 m/s 748 mmHg 69%
    15:00 +31°C° 0.3 mm 3 m/s 747 mmHg 71%
    16:00 +30°C° 0.3 mm 2 m/s 747 mmHg 73%
    17:00 +30°C° 0 mm 2 m/s 747 mmHg 77%
    18:00 +29°C° 0 mm 1 m/s 747 mmHg 80%
    19:00 +28°C° 0 mm 1 m/s 747 mmHg 84%
    20:00 +28°C° 0 mm 1 m/s 748 mmHg 84%
    21:00 +28°C° 0 mm 1 m/s 749 mmHg 85%
    22:00 +27°C° 0 mm 1 m/s 749 mmHg 86%
    23:00 +27°C° 0 mm 1 m/s 749 mmHg 86%

    Poimâine, 22 Mai, Miercuri

    Timp Temperatura Precipitaţii Vânt Presiune Umiditate
    00:00 +27°C° 0 mm 1 m/s 749 mmHg 86%
    01:00 +27°C° 0 mm 1 m/s 749 mmHg 86%
    02:00 +27°C° 0 mm 1 m/s 748 mmHg 86%
    03:00 +26°C° 0 mm 1 m/s 748 mmHg 86%
    04:00 +26°C° 0 mm 1 m/s 748 mmHg 87%
    05:00 +27°C° 0 mm 1 m/s 748 mmHg 86%
    06:00 +27°C° 0 mm 1 m/s 748 mmHg 85%
    07:00 +27°C° 0 mm 1 m/s 748 mmHg 84%
    08:00 +28°C° 0 mm 1 m/s 749 mmHg 78%
    09:00 +30°C° 0 mm 1 m/s 750 mmHg 72%
    10:00 +31°C° 0 mm 1 m/s 750 mmHg 66%
    11:00 +32°C° 0.1 mm 1 m/s 750 mmHg 64%
    12:00 +32°C° 0.1 mm 2 m/s 749 mmHg 61%
    13:00 +34°C° 0.1 mm 2 m/s 749 mmHg 59%
    14:00 +32°C° 0.9 mm 2 m/s 748 mmHg 63%
    15:00 +32°C° 0.9 mm 2 m/s 748 mmHg 67%
    16:00 +31°C° 0.9 mm 1 m/s 747 mmHg 71%
    17:00 +30°C° 0.2 mm 1 m/s 747 mmHg 74%
    18:00 +29°C° 0.2 mm 1 m/s 748 mmHg 78%
    19:00 +26°C° 0.2 mm 0 m/s 748 mmHg 82%
    20:00 +26°C° 0 mm 0 m/s 748 mmHg 82%
    21:00 +26°C° 0 mm 0 m/s 749 mmHg 83%
    22:00 +26°C° 0 mm 0 m/s 749 mmHg 84%
    23:00 +26°C° 0.3 mm 0 m/s 749 mmHg 85%

    23 Mai, Joi

    Timp Temperatura Precipitaţii Vânt Presiune Umiditate
    00:00 +27°C° 0.3 mm 1 m/s 749 mmHg 86%
    01:00 +27°C° 0.3 mm 1 m/s 749 mmHg 86%
    02:00 +27°C° 0.1 mm 1 m/s 748 mmHg 86%
    03:00 +27°C° 0.1 mm 1 m/s 748 mmHg 86%
    04:00 +27°C° 0.1 mm 1 m/s 748 mmHg 87%
    05:00 +27°C° 0 mm 1 m/s 748 mmHg 86%
    06:00 +27°C° 0 mm 1 m/s 749 mmHg 85%
    07:00 +28°C° 0 mm 1 m/s 749 mmHg 84%
    08:00 +29°C° 0.3 mm 1 m/s 749 mmHg 77%
    09:00 +29°C° 0.3 mm 0 m/s 750 mmHg 71%
    10:00 +30°C° 0.3 mm 0 m/s 750 mmHg 64%
    11:00 +33°C° 1.4 mm 1 m/s 750 mmHg 63%
    12:00 +33°C° 1.4 mm 1 m/s 749 mmHg 62%
    13:00 +33°C° 1.4 mm 1 m/s 749 mmHg 61%
    14:00 +33°C° 3.4 mm 1 m/s 748 mmHg 64%
    15:00 +32°C° 3.4 mm 1 m/s 748 mmHg 68%
    16:00 +31°C° 3.4 mm 1 m/s 747 mmHg 71%
    17:00 +30°C° 1.8 mm 1 m/s 748 mmHg 75%
    18:00 +29°C° 1.8 mm 1 m/s 748 mmHg 80%
    19:00 +27°C° 1.8 mm 0 m/s 748 mmHg 84%
    20:00 +28°C° 0.6 mm 1 m/s 749 mmHg 85%
    21:00 +28°C° 0.6 mm 1 m/s 749 mmHg 86%
    22:00 +28°C° 0.6 mm 1 m/s 750 mmHg 87%
    23:00 +27°C° 0.2 mm 1 m/s 749 mmHg 87%

    24 Mai, Vineri

    Timp Temperatura Precipitaţii Vânt Presiune Umiditate
    00:00 +27°C° 0.2 mm 1 m/s 749 mmHg 87%
    01:00 +27°C° 0.2 mm 1 m/s 749 mmHg 88%
    02:00 +27°C° 0.1 mm 1 m/s 748 mmHg 88%
    03:00 +27°C° 0.1 mm 1 m/s 748 mmHg 88%
    04:00 +27°C° 0.1 mm 1 m/s 748 mmHg 87%
    05:00 +27°C° 0 mm 1 m/s 748 mmHg 86%
    06:00 +25°C° 0 mm 0 m/s 749 mmHg 84%
    07:00 +25°C° 0 mm 0 m/s 749 mmHg 83%
    08:00 +26°C° 0 mm 0 m/s 749 mmHg 78%
    09:00 +28°C° 0 mm 0 m/s 750 mmHg 73%
    10:00 +31°C° 0 mm 1 m/s 750 mmHg 67%
    11:00 +31°C° 0.1 mm 1 m/s 750 mmHg 66%
    12:00 +31°C° 0.1 mm 1 m/s 749 mmHg 65%
    13:00 +32°C° 0.1 mm 1 m/s 749 mmHg 64%
    14:00 +32°C° 1.2 mm 1 m/s 748 mmHg 65%
    15:00 +32°C° 1.2 mm 1 m/s 748 mmHg 66%
    16:00 +32°C° 1.2 mm 1 m/s 747 mmHg 66%
    17:00 +31°C° 1.3 mm 1 m/s 748 mmHg 72%
    18:00 +29°C° 1.3 mm 1 m/s 748 mmHg 79%
    19:00 +28°C° 1.3 mm 1 m/s 749 mmHg 85%
    20:00 +28°C° 1.2 mm 1 m/s 749 mmHg 86%
    21:00 +28°C° 1.2 mm 1 m/s 749 mmHg 87%
    22:00 +25°C° 1.2 mm 0 m/s 750 mmHg 89%
    23:00 +25°C° 0.3 mm 0 m/s 749 mmHg 89%

    25 Mai, Sâmbătă

    Timp Temperatura Precipitaţii Vânt Presiune Umiditate
    00:00 +27°C° 0.3 mm 1 m/s 749 mmHg 89%
    01:00 +27°C° 0.3 mm 1 m/s 749 mmHg 89%
    02:00 +25°C° 0.1 mm 0 m/s 748 mmHg 89%
    03:00 +25°C° 0.1 mm 0 m/s 748 mmHg 89%
    04:00 +25°C° 0.1 mm 0 m/s 748 mmHg 88%
    05:00 +25°C° 0.2 mm 0 m/s 748 mmHg 87%
    06:00 +25°C° 0.2 mm 0 m/s 749 mmHg 86%
    07:00 +25°C° 0.2 mm 0 m/s 749 mmHg 84%
    08:00 +29°C° 0.2 mm 1 m/s 749 mmHg 78%
    09:00 +30°C° 0.2 mm 1 m/s 750 mmHg 72%
    10:00 +31°C° 0.2 mm 1 m/s 750 mmHg 66%
    11:00 +32°C° 0.4 mm 1 m/s 749 mmHg 63%
    12:00 +33°C° 0.4 mm 1 m/s 749 mmHg 59%
    13:00 +34°C° 0.4 mm 1 m/s 748 mmHg 56%
    14:00 +33°C° 2.2 mm 1 m/s 748 mmHg 61%
    15:00 +32°C° 2.2 mm 2 m/s 748 mmHg 66%
    16:00 +31°C° 2.2 mm 2 m/s 747 mmHg 71%
    17:00 +30°C° 1.4 mm 1 m/s 748 mmHg 76%
    18:00 +29°C° 1.4 mm 1 m/s 748 mmHg 81%
    19:00 +26°C° 1.4 mm 0 m/s 748 mmHg 85%
    20:00 +26°C° 1.1 mm 0 m/s 749 mmHg 86%
    21:00 +28°C° 1.1 mm 1 m/s 749 mmHg 87%
    22:00 +27°C° 1.1 mm 1 m/s 750 mmHg 88%
    23:00 +27°C° 0.7 mm 1 m/s 749 mmHg 88%
    Arată mai mult